GW6561 Weather Reports


time (UTC)temp
F
wind
direction
speed
knots
gust
knots
rain 1hr
in
rain 24hr
in
rain mn
in
humidity
%
barometer
mb
20260507060829 50 224 7.0 8.7 0.00 0.09 0.09 97 1013.3
20260507060325 50 220 0.0 5.2 0.00 0.09 0.09 97 1013.1
20260507055822 50 221 5.2 6.1 0.00 0.09 0.09 96 1013.3
20260507055317 50 210 0.0 7.0 0.00 0.09 0.09 96 1013.0
20260507054814 51 223 0.0 0.0 0.00 0.09 0.09 96 1013.0
20260507054310 51 226 0.0 7.8 0.00 0.09 0.09 96 1013.1
20260507053808 51 233 0.0 5.2 0.02 0.09 0.09 96 1013.1
20260507053306 51 233 0.0 0.0 0.02 0.09 0.09 95 1013.4
20260507052804 51 218 5.2 5.2 0.00 0.09 0.09 95 1013.4
20260507052300 51 241 7.0 7.8 0.00 0.09 0.09 94 1013.6
20260507051759 51 229 0.0 7.0 0.05 0.09 0.09 94 1013.3
20260507051255 51 230 0.0 7.8 0.09 0.09 0.09 93 1013.3
20260507050752 51 237 6.1 11.3 0.07 0.08 0.08 93 1013.2
20260507050248 51 283 7.0 14.8 0.09 0.07 0.07 93 1013.3
20260507045745 51 226 0.0 14.8 0.09 0.07 0.07 92 1013.5
20260507045241 51 300 8.7 10.4 0.17 0.06 0.06 92 1013.2
20260507044739 52 269 7.0 10.4 0.17 0.05 0.05 91 1013.3
20260507044235 52 181 7.8 21.7 0.07 0.03 0.03 90 1013.0
20260507043732 52 272 8.7 9.6 0.00 0.02 0.02 89 1013.1
20260507043229 53 294 13.0 16.5 0.05 0.02 0.02 89 1012.9
20260507042725 53 284 11.3 16.5 0.09 0.02 0.02 89 1012.6
20260507042220 53 236 5.2 11.3 0.02 0.01 0.01 87 1013.1
20260507041718 53 239 0.0 10.4 0.00 0.00 0.00 87 1012.8
20260507041214 54 288 11.3 11.3 0.02 0.00 0.00 86 1012.8
20260507040711 54 251 0.0 13.0 0.02 0.00 0.00 85 1012.6
20260507040207 54 293 8.7 11.3 0.00 0.00 0.00 85 1012.4
20260507035703 54 286 8.7 10.4 0.00 0.28 0.28 84 1012.5
20260507035159 55 260 7.8 9.6 0.00 0.28 0.28 83 1012.7
20260507034656 55 274 6.1 21.7 0.00 0.28 0.28 83 1012.5
20260507034154 55 287 14.8 18.2 0.00 0.28 0.28 83 1012.3
20260507033652 55 265 7.8 20.0 0.00 0.28 0.28 83 1012.4
20260507033149 55 293 18.2 19.1 0.00 0.28 0.28 83 1012.4
20260507032646 55 294 16.5 19.1 0.00 0.28 0.28 82 1012.4
20260507032142 55 296 10.4 17.4 0.00 0.28 0.28 83 1012.4
20260507031639 56 295 9.6 17.4 0.00 0.28 0.28 86 1012.6
20260507031135 56 239 8.7 19.1 0.00 0.28 0.28 85 1012.8
20260507030632 56 293 16.5 21.7 0.00 0.28 0.28 85 1012.3
20260507030130 56 278 10.4 18.2 0.00 0.28 0.28 86 1012.4
20260507025627 56 171 6.1 17.4 0.00 0.28 0.28 85 1012.1
20260507025124 57 117 8.7 17.4 0.00 0.28 0.28 86 1012.1
20260507024622 57 298 7.0 9.6 0.00 0.28 0.28 86 1012.2
20260507024119 57 219 7.8 14.8 0.00 0.28 0.28 86 1012.5
20260507023614 57 286 10.4 13.9 0.00 0.28 0.28 86 1011.9
20260507023112 57 266 0.0 13.0 0.00 0.28 0.28 87 1012.2
20260507022609 57 200 0.0 13.9 0.00 0.28 0.28 86 1012.1
20260507022104 57 275 7.0 8.7 0.00 0.28 0.28 86 1012.1
20260507021601 58 222 0.0 20.0 0.00 0.28 0.28 86 1012.1
20260507021056 58 251 9.6 19.1 0.00 0.28 0.28 87 1012.0
20260507020555 58 155 5.2 15.6 0.00 0.28 0.28 87 1012.2
20260507020051 58 296 13.9 16.5 0.00 0.28 0.28 86 1012.0
20260507015550 58 281 11.3 14.8 0.00 0.28 0.28 86 1012.0
20260507015047 58 280 10.4 15.6 0.00 0.28 0.28 88 1012.1
20260507014543 58 295 8.7 11.3 0.02 0.28 0.28 90 1012.1
20260507014038 58 248 0.0 9.6 0.05 0.28 0.28 90 1012.3
20260507013535 58 286 7.8 7.8 0.02 0.28 0.28 90 1012.2
20260507013033 59 278 7.0 13.9 0.00 0.28 0.28 88 1012.2
20260507012530 59 298 8.7 14.8 0.00 0.28 0.28 88 1012.2
20260507012026 59 289 8.7 9.6 0.00 0.28 0.28 89 1012.4
20260507011524 59 262 0.0 13.0 0.00 0.28 0.28 89 1012.2
20260507011020 59 273 8.7 11.3 0.00 0.28 0.28 90 1011.9
20260507010514 59 268 7.0 9.6 0.00 0.28 0.28 90 1011.9
20260507010011 59 275 10.4 13.9 0.00 0.28 0.28 89 1011.9
20260507005509 59 285 8.7 10.4 0.00 0.28 0.28 90 1011.6
20260507005005 59 281 8.7 13.0 0.00 0.28 0.28 89 1011.6
20260507004502 60 292 10.4 14.8 0.00 0.28 0.28 90 1011.5
20260507003959 60 293 7.8 10.4 0.00 0.28 0.28 90 1011.7
20260507003454 60 278 7.0 11.3 0.00 0.28 0.28 91 1011.6
20260507002949 60 281 7.8 9.6 0.00 0.28 0.28 92 1011.6
20260507002447 61 285 6.1 9.6 0.00 0.28 0.28 92 1011.5
20260507001943 61 292 13.0 14.8 0.00 0.28 0.28 92 1011.3
20260507001439 61 278 10.4 14.8 0.00 0.28 0.28 94 1011.2
20260507000937 62 292 11.3 13.0 0.00 0.28 0.28 95 1010.8
20260507000435 62 290 9.6 11.3 0.00 0.28 0.28 96 1010.7
20260506235928 62 285 8.7 11.3 0.00 0.28 0.28 96 1010.6
20260506235426 62 286 6.1 13.0 0.00 0.28 0.28 96 1010.5
20260506234921 62 254 0.0 7.0 0.00 0.28 0.28 95 1010.2
20260506234420 62 261 7.0 7.8 0.00 0.28 0.28 95 1010.3
20260506233917 62 273 6.1 7.0 0.00 0.28 0.28 95 1010.2
20260506233413 62 226 0.0 8.7 0.00 0.28 0.28 95 1010.1
20260506232910 62 181 6.1 13.0 0.02 0.28 0.28 95 1010.1
20260506232406 62 224 8.7 11.3 0.05 0.28 0.28 94 1010.3
20260506231902 63 256 7.8 7.8 0.07 0.27 0.27 94 1010.2
20260506231400 63 235 0.0 10.4 0.14 0.27 0.27 93 1010.2
20260506230857 63 250 5.2 14.8 0.12 0.26 0.26 93 1010.3
20260506230353 63 252 5.2 10.4 0.00 0.24 0.24 92 1010.3
20260506225849 64 275 9.6 11.3 0.05 0.24 0.24 92 1010.2
20260506225347 64 259 8.7 35.6 0.09 0.24 0.24 91 1009.9
20260506224844 64 279 7.8 16.5 0.09 0.23 0.23 89 1010.1
20260506224341 64 250 7.8 8.7 0.07 0.22 0.22 90 1010.0
20260506223837 65 244 0.0 7.8 0.02 0.22 0.22 89 1010.0
20260506223333 65 249 6.1 8.7 0.00 0.21 0.21 88 1010.2
20260506222830 65 227 0.0 7.8 0.00 0.21 0.21 87 1010.0
20260506222326 65 217 0.0 8.7 0.00 0.21 0.21 87 1009.7
20260506221824 66 243 5.2 10.4 0.00 0.21 0.21 85 1010.0
20260506221321 66 251 7.0 8.7 0.00 0.21 0.21 85 1010.1
20260506220819 66 248 7.0 8.7 0.00 0.21 0.21 84 1010.0
20260506220319 66 244 6.1 14.8 0.00 0.21 0.21 84 1009.9
20260506215816 66 227 0.0 8.7 0.00 0.21 0.21 84 1009.9
20260506215312 66 272 7.8 13.9 0.00 0.21 0.21 83 1009.7
20260506214808 66 261 6.1 8.7 0.00 0.21 0.21 84 1009.6
20260506214305 66 256 0.0 10.4 0.00 0.21 0.21 83 1009.7
20260506213804 66 234 10.4 10.4 0.00 0.21 0.21 83 1009.5
20260506213300 66 222 8.7 11.3 0.00 0.21 0.21 83 1009.4
20260506212758 67 228 10.4 13.0 0.00 0.21 0.21 82 1009.6
20260506212253 67 248 13.0 13.0 0.00 0.21 0.21 81 1009.6
20260506211748 67 267 0.0 10.4 0.00 0.21 0.21 82 1009.5
20260506211245 68 247 7.0 22.6 0.00 0.21 0.21 80 1009.2
20260506210742 68 271 6.1 13.0 0.00 0.21 0.21 80 1009.5
20260506210239 68 258 7.0 10.4 0.00 0.21 0.21 80 1009.3
20260506205736 68 208 9.6 13.9 0.00 0.21 0.21 79 1009.2
20260506205232 68 184 0.0 8.7 0.00 0.21 0.21 80 1009.1
20260506204729 68 270 8.7 10.4 0.00 0.21 0.21 79 1009.2
20260506204226 69 230 9.6 27.8 0.00 0.21 0.21 78 1009.2
20260506203724 68 268 7.8 14.8 0.00 0.21 0.21 78 1009.0
20260506203221 68 281 8.7 14.8 0.00 0.21 0.21 81 1009.3
20260506202719 67 254 7.8 19.1 0.00 0.21 0.21 82 1009.3
20260506202215 68 209 23.5 23.5 0.00 0.21 0.21 79 1009.0
20260506201712 67 199 0.0 19.1 0.00 0.21 0.21 81 1009.4
20260506201208 67 245 7.0 13.9 0.00 0.21 0.21 82 1009.3
20260506200705 67 234 18.2 18.2 0.00 0.21 0.21 82 1009.4
20260506200202 67 256 7.8 24.3 0.00 0.21 0.21 82 1009.3
20260506195658 66 226 13.9 20.0 0.00 0.21 0.21 82 1009.3
20260506195155 66 263 7.8 15.6 0.00 0.21 0.21 84 1009.2
20260506194652 66 177 14.8 33.9 0.00 0.21 0.21 82 1009.5
20260506194148 66 204 16.5 26.1 0.00 0.21 0.21 81 1009.5
20260506193646 67 235 13.9 13.9 0.00 0.21 0.21 81 1009.7
20260506193143 67 269 10.4 22.6 0.00 0.21 0.21 82 1009.4
20260506192640 66 166 13.9 29.5 0.00 0.21 0.21 83 1009.4
20260506192136 66 209 9.6 13.9 0.00 0.21 0.21 85 1009.3
20260506191633 65 236 5.2 11.3 0.00 0.21 0.21 85 1009.3
20260506191129 65 219 6.1 14.8 0.00 0.21 0.21 86 1009.4
20260506190627 65 208 14.8 20.0 0.00 0.21 0.21 84 1009.7
20260506190123 65 195 11.3 13.9 0.00 0.21 0.21 86 1009.5
20260506185620 65 207 18.2 20.0 0.00 0.21 0.21 86 1009.6
20260506185116 65 202 13.9 26.1 0.00 0.21 0.21 86 1009.6
20260506184614 65 233 18.2 33.9 0.00 0.21 0.21 85 1009.5
20260506184111 64 218 33.9 34.8 0.00 0.21 0.21 86 1009.8
20260506183608 64 218 27.8 33.9 0.00 0.21 0.21 87 1009.9
20260506183104 64 212 18.2 33.0 0.00 0.21 0.21 87 1009.9
20260506182601 63 197 13.0 32.2 0.00 0.21 0.21 89 1009.9
20260506182058 63 238 18.2 34.8 0.00 0.21 0.21 89 1010.1
20260506181556 63 214 20.0 25.2 0.00 0.21 0.21 90 1010.1
20260506181053 62 209 16.5 19.1 0.00 0.21 0.21 91 1010.1
20260506180549 62 217 25.2 26.1 0.00 0.21 0.21 91 1010.1
20260506180046 62 211 9.6 17.4 0.00 0.21 0.21 91 1010.1
20260506175542 62 228 13.9 24.3 0.00 0.21 0.21 91 1010.0
20260506175039 62 212 23.5 29.5 0.00 0.21 0.21 90 1010.1
20260506174538 62 217 13.9 29.5 0.00 0.21 0.21 92 1010.3
20260506174033 62 192 13.0 26.9 0.00 0.21 0.21 92 1010.3
20260506173531 62 218 13.0 21.7 0.00 0.21 0.21 92 1010.2
20260506173028 62 251 13.9 20.0 0.00 0.21 0.21 92 1010.3
20260506172526 61 225 17.4 37.4 0.00 0.21 0.21 92 1009.9
20260506172021 61 255 10.4 25.2 0.00 0.21 0.21 93 1010.0
20260506171519 61 222 19.1 27.8 0.00 0.21 0.21 93 1010.3
20260506171017 61 253 15.6 25.2 0.00 0.21 0.21 93 1010.2
20260506170514 61 224 19.1 27.8 0.00 0.21 0.21 94 1010.2
20260506170006 61 253 17.4 33.9 0.00 0.21 0.21 93 1010.1
20260506165504 61 236 14.8 31.3 0.00 0.21 0.21 93 1010.1
20260506165000 61 231 24.3 33.9 0.00 0.21 0.21 93 1010.0
20260506164456 61 227 29.5 39.1 0.00 0.21 0.21 94 1010.3
20260506163954 61 230 18.2 33.0 0.00 0.21 0.21 94 1010.1
20260506163449 61 215 31.3 47.8 0.00 0.21 0.21 94 1010.1
20260506162944 61 221 33.9 40.8 0.00 0.21 0.21 95 1010.0
20260506162442 61 231 20.0 34.8 0.00 0.21 0.21 95 1010.3
20260506161939 61 226 26.9 31.3 0.00 0.21 0.21 95 1010.2
20260506161437 61 234 33.9 37.4 0.00 0.21 0.21 96 1010.3
20260506160934 61 232 14.8 27.8 0.00 0.21 0.21 96 1010.4
20260506160432 61 235 20.0 23.5 0.00 0.21 0.21 96 1010.1
20260506155929 61 222 23.5 31.3 0.02 0.21 0.21 96 1010.3
20260506155427 61 214 21.7 34.8 0.05 0.21 0.21 95 1010.3
20260506153548 60 210 27.8 46.9 0.05 0.20 0.20 95 1009.9
20260506153045 60 186 20.0 34.8 0.07 0.19 0.19 95 1010.1
20260506152542 60 220 20.0 35.6 0.07 0.19 0.19 95 1010.4
20260506152040 60 215 18.2 26.1 0.07 0.18 0.18 95 1010.6
20260506151538 60 214 23.5 25.2 0.09 0.18 0.18 95 1010.8
20260506151035 60 261 7.8 22.6 0.05 0.17 0.17 95 1010.9
20260506150531 60 200 15.6 21.7 0.07 0.16 0.16 95 1011.0
20260506150028 60 225 16.5 18.2 0.07 0.16 0.16 95 1011.1
20260506145525 60 258 15.6 23.5 0.07 0.15 0.15 94 1011.0
20260506145023 60 210 16.5 19.1 0.05 0.14 0.14 94 1011.5
20260506144519 60 205 14.8 17.4 0.05 0.14 0.14 94 1011.2
20260506144017 60 243 17.4 24.3 0.07 0.13 0.13 93 1011.3
20260506143514 61 228 21.7 26.1 0.07 0.13 0.13 93 1011.0
20260506143013 61 222 21.7 27.8 0.09 0.12 0.12 92 1011.1
20260506142510 61 247 14.8 49.5 0.07 0.11 0.11 92 1010.9
20260506142008 61 214 22.6 25.2 0.02 0.10 0.10 93 1010.8
20260506141505 61 214 26.1 30.4 0.09 0.10 0.10 92 1010.8
20260506141004 61 270 21.7 33.9 0.07 0.09 0.09 92 1010.8
20260506140500 61 212 31.3 35.6 0.09 0.09 0.09 92 1010.8
20260506135957 61 227 14.8 26.1 0.12 0.08 0.08 92 1010.5
20260506135454 61 216 26.9 26.9 0.14 0.07 0.07 91 1010.7
20260506134950 61 213 17.4 17.4 0.12 0.06 0.06 90 1010.8
20260506134446 61 225 15.6 23.5 0.07 0.05 0.05 89 1010.7
20260506133943 61 228 17.4 19.1 0.05 0.04 0.04 89 1011.1
20260506133440 61 225 13.9 14.8 0.00 0.04 0.04 89 1011.1
20260506132937 61 226 16.5 18.2 0.00 0.04 0.04 89 1011.0
20260506132434 61 202 11.3 16.5 0.00 0.04 0.04 89 1011.1
20260506131932 62 224 14.8 27.8 0.02 0.04 0.04 88 1010.8
20260506131428 62 220 26.1 26.1 0.02 0.03 0.03 88 1010.7
20260506130925 62 217 19.1 23.5 0.05 0.03 0.03 87 1010.9
20260506130421 62 201 11.3 13.9 0.02 0.03 0.03 88 1011.1
20260506125920 62 224 10.4 15.6 0.02 0.02 0.02 88 1011.2
20260506125418 62 215 8.7 13.9 0.00 0.02 0.02 87 1011.2
20260506124916 61 234 10.4 15.6 0.00 0.02 0.02 86 1011.1
20260506124413 62 212 9.6 14.8 0.02 0.02 0.02 86 1011.1
20260506123911 62 236 9.6 17.4 0.02 0.02 0.02 85 1011.2
20260506123408 62 201 10.4 14.8 0.02 0.02 0.02 85 1011.2
20260506122905 62 237 8.7 14.8 0.02 0.02 0.02 84 1011.4
20260506122402 62 224 7.8 15.6 0.00 0.01 0.01 83 1011.4
20260506121901 62 232 11.3 18.2 0.00 0.01 0.01 83 1011.4
20260506121357 62 240 7.8 17.4 0.02 0.01 0.01 83 1011.5
20260506120854 62 228 17.4 20.0 0.02 0.01 0.01 83 1011.3
20260506120351 62 228 14.8 18.2 0.00 0.01 0.01 83 1011.2
20260506115849 62 217 17.4 20.0 0.02 0.01 0.01 83 1010.9
20260506115347 62 217 15.6 22.6 0.02 0.01 0.01 83 1011.1
20260506114845 62 223 18.2 20.0 0.02 0.00 0.00 82 1011.0
20260506114342 62 223 11.3 18.2 0.02 0.00 0.00 82 1010.9
20260506113841 62 214 18.2 22.6 0.00 0.00 0.00 81 1010.8
20260506113338 62 206 7.0 20.0 0.00 0.00 0.00 81 1010.8
20260506112834 62 212 15.6 21.7 0.00 0.00 0.00 80 1010.8
20260506112332 62 219 15.6 25.2 0.00 0.00 0.00 80 1010.7
20260506111829 63 232 13.0 27.8 0.00 0.00 0.00 79 1010.7
20260506111327 63 219 9.6 27.8 0.00 0.00 0.00 78 1010.4
20260506110824 63 214 14.8 31.3 0.00 0.00 0.00 77 1010.5
20260506110321 63 222 17.4 31.3 0.00 0.00 0.00 76 1010.5
20260506105818 64 237 16.5 32.2 0.00 0.00 0.00 75 1010.5
20260506105315 64 220 18.2 33.9 0.00 0.00 0.00 74 1010.3
20260506104812 64 201 20.0 26.9 0.00 0.00 0.00 74 1010.3
20260506104310 64 208 16.5 42.6 0.00 0.00 0.00 74 1010.4
20260506103807 64 219 24.3 32.2 0.00 0.00 0.00 74 1010.4
20260506103305 64 213 33.0 35.6 0.00 0.00 0.00 73 1010.3
20260506102802 64 209 30.4 39.1 0.00 0.00 0.00 73 1010.3
20260506102300 64 217 21.7 39.1 0.00 0.00 0.00 73 1010.1
20260506101757 64 207 30.4 37.4 0.00 0.00 0.00 72 1010.1
20260506101253 64 219 20.0 26.9 0.00 0.00 0.00 72 1010.1
20260506100751 64 207 17.4 26.9 0.00 0.00 0.00 72 1010.2
20260506100249 64 216 24.3 26.1 0.00 0.00 0.00 71 1010.1
20260506095747 64 216 13.9 27.8 0.00 0.00 0.00 71 1010.0
20260506095244 64 216 23.5 24.3 0.00 0.00 0.00 71 1010.2
20260506094740 64 239 19.1 22.6 0.00 0.00 0.00 71 1010.0
20260506094239 64 191 16.5 32.2 0.00 0.00 0.00 70 1010.0
20260506093737 64 228 16.5 31.3 0.00 0.00 0.00 71 1010.0
20260506093234 64 211 17.4 21.7 0.00 0.00 0.00 70 1010.0
20260506092731 64 221 18.2 32.2 0.00 0.00 0.00 70 1010.0
20260506092229 64 216 19.1 27.8 0.00 0.00 0.00 69 1010.2
20260506091726 64 210 25.2 26.9 0.00 0.00 0.00 69 1009.9
20260506091224 64 216 30.4 31.3 0.00 0.00 0.00 69 1010.0
20260506090721 63 219 21.7 21.7 0.00 0.00 0.00 70 1010.3
20260506090218 63 218 13.9 18.2 0.00 0.00 0.00 69 1010.3
20260506085715 63 208 16.5 23.5 0.00 0.00 0.00 69 1010.4
20260506085211 63 238 8.7 14.8 0.00 0.00 0.00 68 1010.4
20260506084708 63 185 8.7 13.0 0.00 0.00 0.00 67 1010.3
20260506084204 63 200 7.0 10.4 0.00 0.00 0.00 68 1010.4
20260506083701 63 185 8.7 13.9 0.00 0.00 0.00 68 1010.5
20260506083159 63 184 6.1 7.0 0.00 0.00 0.00 68 1010.3
20260506082656 64 214 0.0 7.0 0.00 0.00 0.00 68 1010.3
20260506082150 64 158 7.8 8.7 0.00 0.00 0.00 66 1010.2
20260506081649 64 189 10.4 13.0 0.00 0.00 0.00 66 1010.2
20260506081146 63 196 7.0 11.3 0.00 0.00 0.00 67 1010.4
20260506080644 63 241 5.2 5.2 0.00 0.00 0.00 70 1010.2
20260506080140 64 258 0.0 8.7 0.00 0.00 0.00 68 1010.3
20260506073124 65 214 9.6 11.3 0.00 0.00 0.00 63 1010.4
20260506072620 65 217 8.7 14.8 0.00 0.00 0.00 62 1010.4
20260506072119 66 269 0.0 9.6 0.00 0.00 0.00 62 1010.5
20260506071616 66 219 13.0 17.4 0.00 0.00 0.00 61 1010.6
20260506071114 66 217 10.4 16.5 0.00 0.00 0.00 60 1010.7
20260506070610 66 225 9.6 14.8 0.00 0.00 0.00 60 1010.5
20260506070108 66 226 10.4 18.2 0.00 0.00 0.00 60 1010.5
20260506062045 65 217 8.7 16.5 0.00 0.00 0.00 59 1011.3
20260506061540 65 203 9.6 17.4 0.00 0.00 0.00 59 1011.0
20260506061038 65 213 9.6 13.0 0.00 0.00 0.00 59 1011.2